Temperature
15 14 14 14 13 13 13 13 13 12 12 12 12 12 11 11 11 11 11 11 11 11 11 11 11 11 10 10 10 10 10 10 10 10 11 11 11 11 11 11 11 11 11
14 14 14 14 13 13 13 13 13 12 12 12 12 11 11 11 11 11 11 11 11 11 11 10 10 10 10 10 10 10 10 10 10 10 10 10 10 10 10 10 11 11 11
14 14 13 13 13 13 13 13 12 12 12 12 11 11 11 11 11 11 11 11 10 10 10 10 10 10 10 10 10 10 10 10 10 10 10 10 10 10 10 10 10 10 10
14 13 13 13 13 13 12 12 12 12 12 12 11 11 11 11 11 11 10 10 10 10 10 10 10 10 10 10 9 9 9 9 9 9 9 9 9 10 10 10 10 10 10
13 13 13 13 13 12 12 12 12 12 12 11 11 11 11 11 11 10 10 10 10 10 10 10 10 9 9 9 9 9 9 9 9 9 9 9 9 9 9 9 9 9 9
13 13 13 13 12 12 12 12 12 12 11 11 11 11 11 11 10 10 10 10 10 10 10 9 9 9 9 9 9 9 9 9 9 9 9 9 8 8 8 8 8 9 9
13 13 12 12 12 12 12 11 11 11 11 11 11 11 10 10 10 10 10 10 9 9 9 9 9 9 9 9 9 9 8 8 8 8 8 8 8 8 8 8 8 8 8
13 12 12 12 12 12 11 11 11 11 11 11 10 10 10 10 10 10 10 9 9 9 9 9 9 9 8 8 8 8 8 8 8 8 8 8 8 8 8 7 7 7 8
12 12 12 12 11 11 11 11 11 10 10 10 10 10 10 10 10 9 9 9 9 9 9 8 8 8 8 8 8 8 8 8 8 8 8 7 7 7 7 7 7 7 7
12 12 11 11 11 11 11 10 10 10 10 10 10 10 9 9 9 9 9 9 8 8 8 8 8 8 8 8 8 8 7 8 7 7 7 7 7 7 7 7 7 7 7
11 11 11 11 11 10 10 10 10 10 10 9 9 9 9 9 9 8 8 8 8 8 8 8 8 8 8 7 7 7 7 7 7 7 7 7 7 7 7 7 6 6 6
11 10 10 10 10 10 10 10 10 9 9 9 9 9 9 9 8 8 8 8 8 7 7 7 7 7 7 7 7 7 7 7 7 7 6 7 6 6 6 6 6 6 6
10 10 10 10 10 9 9 9 9 9 9 9 8 8 8 8 8 8 8 7 7 7 7 7 7 7 7 7 7 7 6 6 6 6 6 6 6 6 6 6 6 6 6
10 9 9 9 9 9 9 9 9 9 8 8 8 8 8 8 7 7 7 7 7 7 7 7 6 6 6 6 6 6 6 6 6 6 6 6 6 6 5 5 5 5 5
9 9 9 9 9 9 8 8 8 8 8 8 7 7 7 7 7 7 7 7 6 6 6 6 6 6 6 6 6 6 6 5 5 5 5 5 5 5 5 5 5 5 5
9 9 9 9 8 8 8 8 7 7 7 7 7 7 7 6 6 6 6 6 6 6 5 5 5 5 5 5 5 5 5 5 5 5 5 5 5 5 4 4 4 4 4
8 8 8 8 8 8 7 7 7 7 6 6 6 6 6 6 6 6 5 5 5 5 5 5 5 4 4 4 4 4 4 4 4 4 4 4 4 4 4 4 4 4 4
8 8 8 7 7 7 7 7 7 6 6 6 6 6 5 5 5 5 5 5 5 5 5 4 4 4 4 4 4 4 4 4 4 4 4 4 4 4 4 4 4 4 4
7 7 7 7 7 7 7 6 6 6 6 5 5 5 5 5 5 5 5 4 4 4 4 4 4 4 4 4 4 4 4 4 4 3 3 3 3 3 3 3 3 3 3
7 7 7 6 6 6 6 6 6 5 5 5 5 5 4 4 4 4 4 4 4 4 4 4 3 3 3 3 3 3 3 3 3 3 3 3 3 3 3 3 3 3 3
6 6 6 6 6 6 6 5 5 5 5 5 4 4 4 4 4 4 4 3 3 3 3 3 3 3 3 3 3 3 3 3 3 3 3 3 2 2 2 2 3 3 3
6 6 6 6 5 5 5 5 5 5 4 4 4 4 3 3 3 3 3 3 3 3 3 3 3 3 3 3 3 3 3 2 3 3 3 2 2 2 2 2 2 2 2
6 5 5 5 5 5 4 4 4 4 4 4 3 3 3 3 3 3 3 3 3 3 3 3 2 2 2 2 2 2 2 2 2 2 2 2 2 2 2 2 2 2 2
5 5 5 5 4 4 4 4 4 4 3 3 3 3 3 3 2 2 2 2 2 2 2 2 2 2 2 2 2 2 2 2 2 2 2 2 2 2 2 2 2 2 1
5 4 4 4 4 4 4 3 3 3 3 3 3 2 2 2 2 2 2 2 2 2 2 2 2 1 2 2 2 1 2 1 1 1 1 1 1 1 1 1 1 1 1
4 4 4 4 3 3 3 3 3 3 3 3 2 2 2 2 2 1 1 1 1 1 1 1 1 1 1 1 1 1 1 1 1 1 1 1 1 1 1 1 1 1 1
Wind_Speed
6 6 5 5 5 4 4 5 5 4 4 4 4 4 4 4 4 4 3 3 3 2 2 2 2 1 1 1 1 1 1 2 3 3 2 2 2 3 4 4 4 4 4
6 5 5 5 4 5 5 5 4 4 4 5 4 4 4 4 4 5 5 4 4 3 3 2 3 2 2 1 2 2 2 2 3 3 2 2 2 3 3 3 4 4 4
5 5 4 4 4 5 6 5 5 5 4 4 4 5 5 5 5 5 5 5 5 5 4 4 4 3 3 2 2 2 2 2 2 2 2 1 2 2 2 3 3 3 4
4 5 5 5 5 5 5 4 4 5 5 5 5 5 5 5 5 5 5 5 4 4 4 5 5 5 5 4 3 3 3 2 2 2 2 2 2 2 1 2 3 2 3
4 5 5 4 4 3 3 4 4 4 5 5 5 4 4 4 5 5 5 5 5 4 4 5 5 6 7 5 4 4 4 3 2 2 2 2 2 1 2 2 2 2 2
4 4 4 3 3 3 4 3 3 4 4 4 5 5 5 5 6 7 6 4 5 5 5 5 5 5 6 7 6 6 5 4 4 3 3 3 4 4 2 2 1 1 3
4 3 3 3 3 4 3 3 4 4 4 4 5 5 6 6 7 8 8 5 5 5 5 5 4 3 3 3 4 5 5 6 7 5 5 6 5 5 3 3 2 2 3
4 4 3 3 4 3 3 4 4 4 4 5 5 5 5 6 8 8 7 5 4 5 5 5 4 4 4 4 3 3 3 4 5 5 6 6 6 5 5 5 4 3 2
4 4 4 4 4 4 4 5 4 4 4 4 4 4 5 6 7 7 6 3 3 4 4 4 4 5 6 5 4 3 3 4 5 5 6 5 5 4 3 2 1 1 2
4 4 4 4 4 4 5 4 3 4 4 4 4 4 5 5 6 6 6 3 3 3 3 3 6 6 6 5 5 4 4 4 3 2 3 3 3 2 3 4 4 3 2
3 2 2 3 4 4 4 3 3 3 3 3 3 3 4 5 6 6 6 4 4 4 3 3 4 5 6 6 5 5 6 4 2 2 2 2 1 1 2 2 3 4 4
1 1 2 2 2 2 2 2 2 3 3 3 3 3 3 3 4 5 5 5 4 4 4 3 4 5 5 4 3 3 4 2 1 1 1 2 2 2 2 2 3 3 4
1 2 2 2 1 2 2 2 2 2 3 3 2 3 3 2 3 3 4 5 5 3 3 4 3 3 3 2 2 2 1 1 2 2 2 3 3 3 2 1 1 1 1
2 2 2 2 1 1 1 2 2 3 3 3 3 3 3 2 2 2 1 1 2 2 2 2 1 1 1 1 1 1 0 1 2 2 3 2 2 1 2 1 1 1 0
2 2 2 2 2 1 1 2 3 4 4 4 4 4 3 3 4 2 2 2 2 2 1 1 1 0 0 0 0 0 0 0 1 2 2 2 1 1 1 1 1 1 1
2 2 2 2 2 2 1 1 2 2 3 4 4 4 4 3 2 2 2 2 2 3 2 1 1 1 2 2 1 1 1 1 2 2 2 2 2 2 1 1 1 2 2
3 3 2 2 2 2 2 2 1 3 2 1 1 2 2 2 2 2 2 2 2 3 1 1 2 2 2 2 2 2 2 2 1 1 2 2 1 1 1 1 1 1 2
2 3 3 3 3 3 3 3 2 2 1 2 2 1 1 1 1 2 2 3 1 1 1 1 2 3 3 2 2 2 2 1 1 1 1 1 1 1 2 2 2 2 2
2 2 2 2 2 3 3 2 2 2 2 1 1 1 1 1 1 1 3 2 2 1 1 2 2 3 3 2 2 2 2 2 1 1 1 1 1 1 2 2 2 3 2
2 3 3 2 2 2 3 3 2 2 2 2 2 2 1 1 1 0 0 1 1 1 2 2 2 2 2 2 2 2 1 1 1 1 2 2 2 2 2 2 2 2 2
2 3 3 3 3 3 3 4 4 3 3 3 3 3 3 3 2 2 1 1 2 2 2 2 2 2 1 1 1 1 1 2 2 1 1 2 1 2 2 2 2 2 2
2 2 2 3 3 3 3 3 3 3 4 3 2 2 3 3 2 2 2 2 2 2 2 2 2 1 1 1 1 1 1 1 2 1 1 1 1 1 2 2 2 2 2
2 2 2 2 3 4 3 3 3 3 3 3 3 2 2 3 2 2 2 2 1 1 1 1 1 1 1 1 2 2 2 2 2 2 1 2 2 2 2 2 2 2 2
2 3 3 3 3 3 3 4 4 4 4 3 3 3 3 3 3 2 2 1 1 1 1 1 1 1 1 1 1 2 3 3 2 2 2 2 2 2 1 1 2 3 3
2 2 2 2 2 3 3 3 4 4 4 4 4 3 3 3 3 2 2 1 1 1 1 1 1 1 1 1 2 2 2 2 2 1 2 1 1 1 2 2 2 2 2
2 2 2 2 2 2 3 3 3 3 4 4 4 3 3 3 3 2 2 2 1 1 1 1 1 1 1 2 2 2 1 2 2 1 1 1 1 1 1 1 1 1 2
Wind_Direction
191 195 198 203 201 195 200 208 206 204 200 198 198 194 194 196 190 181 193 182 185 208 205 197 224 217 209 207 182 175 186 176 217 273 274 295 306 313 325 326 320 320 317
193 191 203 201 196 201 214 219 205 202 204 204 200 199 205 205 196 195 205 198 198 210 219 211 228 217 215 218 198 206 215 204 199 245 277 298 288 292 306 315 326 317 303
185 186 195 200 200 208 218 219 208 204 205 207 200 207 213 211 206 208 206 207 208 214 214 214 223 204 222 228 214 221 230 223 199 212 261 276 285 299 314 316 319 318 311
180 186 200 211 213 216 218 215 210 206 205 210 212 215 216 213 210 208 206 212 217 222 220 221 222 210 218 219 223 223 217 208 200 211 245 270 275 285 291 299 314 313 303
181 192 209 215 213 212 215 219 211 207 214 214 212 219 220 215 212 202 205 213 215 226 234 235 232 223 221 218 221 213 200 203 211 221 238 259 266 261 255 256 278 302 293
184 204 210 200 201 208 217 218 215 215 213 209 215 217 221 229 225 213 206 210 212 216 232 243 245 238 236 232 234 225 208 203 212 217 231 235 248 242 245 244 254 308 297
193 205 206 201 206 217 220 213 220 221 216 217 221 220 226 235 233 226 217 208 213 216 221 231 243 237 231 229 240 240 238 236 222 215 228 235 237 232 224 237 230 227 250
202 211 213 210 216 219 212 219 229 227 223 226 230 228 232 240 237 234 223 201 205 219 220 220 220 226 227 219 211 220 241 253 246 232 229 236 235 228 213 217 225 242 264
218 222 219 213 216 220 225 232 233 226 230 230 231 230 234 247 243 234 205 195 210 224 224 221 215 221 234 224 202 216 251 270 266 247 250 254 257 251 218 179 194 217 263
236 234 225 210 210 222 232 237 235 227 230 230 236 235 235 246 252 233 208 196 207 224 233 231 229 229 234 218 201 205 235 256 253 271 280 280 275 260 223 205 205 210 233
245 231 220 215 215 220 228 234 229 220 218 226 241 252 244 248 255 243 217 200 202 211 224 231 236 233 231 222 209 211 230 234 216 218 244 272 280 259 239 227 215 208 216
231 220 228 231 228 221 211 229 222 204 208 226 244 266 268 261 255 246 228 218 210 210 225 227 233 230 221 213 211 225 229 223 191 204 233 252 250 249 252 255 245 235 230
230 228 240 243 241 213 200 211 222 207 211 224 226 245 268 274 270 265 246 225 216 215 222 228 226 216 211 213 225 226 216 193 192 213 239 249 244 238 233 242 297 330 333
229 243 238 227 246 240 210 203 203 210 215 221 225 237 251 265 261 252 233 228 213 212 209 215 214 190 180 236 271 283 235 204 205 225 245 251 244 224 215 197 204 217 301
240 242 229 217 209 217 229 227 215 220 217 215 224 215 213 238 247 230 177 180 173 167 127 96 71 70 220 319 336 320 276 231 247 249 240 242 234 228 245 225 200 191 209
235 237 224 217 211 199 196 316 317 265 259 233 216 205 222 230 231 195 183 170 160 142 112 170 216 218 226 238 239 256 255 245 250 248 256 240 225 231 253 254 219 203 218
223 223 217 210 208 205 196 198 280 339 349 302 230 219 213 199 183 178 163 152 148 132 122 216 228 229 235 236 238 238 249 250 250 249 253 248 237 231 234 242 237 224 225
230 221 213 213 209 206 206 206 202 201 263 313 314 270 228 184 165 158 137 119 116 120 171 229 243 239 239 237 239 250 252 248 251 251 249 243 226 226 232 238 241 231 225
225 226 219 212 211 205 201 198 197 198 207 237 292 324 331 131 100 112 121 133 172 209 231 243 249 249 244 240 240 238 236 238 246 249 251 248 235 227 236 242 245 237 229
230 227 211 201 198 195 189 188 194 197 205 215 224 228 191 100 107 107 169 185 201 222 239 253 260 257 248 248 245 234 233 244 251 256 257 248 240 232 237 243 243 241 238
226 230 215 201 201 200 196 197 198 197 202 214 227 219 172 166 188 204 214 221 222 231 240 249 257 258 256 255 259 253 244 254 257 256 262 262 254 254 255 248 245 237 232
215 222 217 210 206 203 201 198 196 197 201 207 223 220 185 173 186 199 222 237 237 234 227 222 234 237 237 233 235 236 248 271 270 265 267 272 272 266 255 239 235 233 216
205 209 213 218 210 202 198 193 191 195 200 201 201 196 189 193 199 203 218 235 243 242 233 214 230 250 278 236 225 217 219 246 254 242 249 269 271 265 251 232 223 226 228
201 207 205 210 205 200 200 199 194 194 197 198 194 193 195 198 203 208 212 214 221 231 213 203 217 241 276 289 267 254 246 248 242 221 216 234 256 259 253 245 231 230 228
192 200 199 199 199 201 206 203 198 197 197 193 190 190 193 197 200 203 202 192 187 200 219 218 218 235 265 290 296 291 295 281 262 232 213 206 238 257 251 245 239 230 225
193 197 198 190 191 199 198 198 198 195 193 190 187 187 189 191 195 196 189 182 181 195 212 223 252 268 285 290 287 293 297 289 280 265 165 157 190 234 254 249 239 225 212
Height
1509 1511 1513 1514 1515 1516 1517 1517 1518 1518 1519 1519 1520 1520 1520 1521 1521 1521 1521 1522 1522 1522 1522 1522 1522 1522 1522 1522 1522 1522 1522 1522 1521 1520 1521 1521 1520 1520 1520 1519 1518 1518 1517
1506 1508 1510 1511 1512 1513 1513 1514 1515 1515 1516 1516 1517 1517 1517 1518 1518 1518 1518 1519 1519 1519 1519 1519 1519 1519 1520 1520 1520 1519 1519 1519 1519 1518 1518 1518 1518 1518 1517 1516 1516 1515 1515
1503 1505 1506 1507 1508 1509 1510 1511 1512 1512 1513 1513 1514 1514 1514 1514 1514 1514 1515 1515 1515 1516 1516 1516 1516 1516 1516 1517 1517 1516 1516 1516 1516 1515 1514 1515 1515 1515 1514 1514 1513 1513 1512
1499 1501 1502 1503 1504 1505 1506 1507 1508 1508 1509 1509 1510 1510 1510 1511 1511 1511 1511 1511 1512 1512 1512 1512 1512 1513 1513 1513 1513 1513 1513 1513 1513 1512 1512 1511 1511 1511 1511 1510 1510 1510 1509
1496 1498 1499 1500 1501 1502 1503 1503 1504 1505 1505 1506 1506 1506 1506 1507 1507 1507 1507 1507 1507 1508 1508 1508 1509 1509 1509 1509 1510 1509 1509 1509 1509 1508 1508 1508 1508 1508 1508 1507 1507 1506 1506
1493 1494 1495 1496 1497 1498 1499 1499 1500 1501 1501 1501 1502 1502 1502 1502 1503 1503 1503 1503 1503 1503 1504 1504 1505 1505 1505 1505 1506 1506 1506 1506 1505 1505 1504 1504 1504 1504 1504 1504 1503 1503 1502
1491 1491 1492 1493 1493 1494 1495 1495 1496 1496 1497 1497 1497 1498 1498 1498 1499 1499 1499 1499 1499 1499 1499 1500 1500 1500 1501 1501 1501 1501 1501 1501 1502 1502 1500 1500 1500 1500 1501 1500 1500 1500 1499
1488 1488 1489 1490 1490 1490 1491 1491 1492 1492 1492 1493 1493 1493 1494 1494 1494 1494 1494 1494 1495 1495 1495 1496 1496 1496 1496 1497 1497 1497 1497 1497 1497 1497 1497 1496 1497 1497 1497 1497 1497 1497 1497
1485 1485 1486 1486 1486 1487 1487 1487 1488 1488 1488 1488 1488 1489 1489 1489 1490 1490 1490 1490 1490 1491 1491 1491 1492 1492 1492 1492 1492 1492 1492 1492 1493 1493 1493 1492 1493 1493 1493 1493 1493 1493 1492
1481 1482 1482 1483 1483 1483 1483 1483 1484 1484 1484 1484 1484 1485 1485 1485 1485 1486 1486 1486 1486 1486 1487 1487 1487 1487 1488 1488 1488 1487 1487 1487 1488 1488 1488 1488 1488 1488 1488 1489 1489 1489 1488
1479 1479 1479 1479 1479 1479 1479 1480 1480 1480 1480 1480 1480 1480 1480 1481 1481 1481 1482 1482 1482 1482 1482 1482 1482 1483 1483 1483 1483 1483 1483 1483 1483 1483 1483 1483 1484 1483 1484 1484 1485 1485 1484
1476 1475 1475 1475 1475 1476 1476 1476 1476 1476 1476 1476 1476 1476 1476 1476 1477 1477 1477 1478 1478 1477 1477 1477 1477 1478 1478 1478 1479 1479 1479 1479 1479 1479 1479 1479 1479 1479 1479 1479 1480 1480 1480
1472 1472 1472 1472 1472 1472 1472 1472 1472 1472 1472 1472 1472 1472 1472 1472 1472 1472 1473 1473 1473 1473 1473 1473 1473 1473 1474 1474 1474 1474 1475 1474 1474 1474 1474 1474 1474 1474 1474 1475 1475 1475 1476
1469 1469 1469 1469 1468 1468 1468 1468 1468 1468 1468 1468 1468 1468 1468 1468 1468 1468 1469 1469 1469 1469 1469 1469 1469 1469 1469 1469 1470 1470 1470 1470 1470 1469 1469 1469 1469 1469 1470 1470 1470 1471 1471
1466 1466 1465 1465 1465 1465 1465 1465 1465 1465 1465 1464 1464 1464 1464 1464 1464 1465 1465 1465 1465 1465 1465 1465 1465 1465 1464 1465 1465 1465 1465 1466 1465 1465 1465 1464 1464 1465 1465 1466 1466 1467 1467
1462 1462 1462 1462 1462 1462 1462 1462 1462 1462 1462 1462 1462 1462 1461 1462 1462 1462 1462 1462 1462 1463 1462 1461 1461 1461 1461 1461 1461 1461 1461 1461 1461 1461 1461 1461 1461 1461 1461 1462 1463 1463 1463
1459 1459 1458 1458 1458 1458 1458 1458 1458 1459 1459 1459 1459 1458 1459 1459 1458 1458 1459 1459 1459 1459 1459 1459 1458 1458 1458 1458 1458 1458 1458 1458 1458 1458 1457 1457 1457 1457 1458 1458 1458 1458 1459
1456 1455 1455 1455 1455 1455 1455 1455 1455 1455 1455 1455 1456 1456 1456 1456 1456 1456 1456 1456 1456 1456 1456 1456 1456 1456 1455 1455 1455 1455 1455 1455 1454 1454 1454 1454 1454 1454 1454 1454 1455 1454 1455
1452 1452 1452 1452 1452 1452 1452 1452 1452 1452 1452 1452 1452 1453 1453 1453 1453 1454 1453 1453 1453 1453 1453 1453 1453 1453 1453 1452 1452 1452 1452 1451 1451 1451 1451 1450 1451 1451 1451 1451 1451 1451 1451
1449 1449 1449 1448 1448 1448 1448 1448 1449 1449 1449 1449 1449 1450 1450 1450 1450 1450 1451 1451 1451 1451 1451 1451 1450 1450 1450 1449 1449 1449 1448 1448 1448 1448 1447 1447 1447 1447 1447 1447 1447 1447 1447
1445 1445 1445 1444 1444 1444 1444 1444 1445 1445 1445 1446 1446 1447 1447 1447 1447 1448 1448 1448 1448 1448 1448 1448 1447 1447 1447 1446 1446 1446 1445 1445 1445 1444 1444 1444 1444 1444 1444 1444 1444 1444 1445
1441 1441 1440 1440 1440 1440 1440 1440 1441 1441 1441 1442 1443 1443 1444 1444 1445 1445 1445 1446 1446 1445 1445 1445 1444 1444 1444 1443 1443 1443 1442 1441 1441 1441 1441 1441 1440 1441 1441 1441 1441 1441 1442
1437 1436 1436 1436 1436 1436 1436 1436 1437 1437 1438 1438 1439 1439 1440 1441 1441 1442 1442 1443 1443 1443 1442 1442 1442 1441 1441 1440 1440 1440 1439 1439 1438 1438 1437 1437 1437 1437 1438 1438 1438 1438 1439
1433 1432 1432 1431 1431 1431 1432 1432 1432 1433 1434 1434 1435 1436 1437 1437 1438 1438 1439 1439 1440 1439 1439 1439 1439 1438 1438 1437 1437 1437 1436 1436 1436 1435 1435 1435 1435 1435 1435 1435 1435 1436 1436
1429 1428 1428 1428 1428 1428 1428 1428 1428 1429 1429 1430 1431 1432 1433 1434 1434 1435 1436 1436 1436 1436 1436 1436 1436 1435 1435 1434 1434 1434 1434 1434 1434 1433 1433 1433 1432 1432 1432 1432 1432 1432 1433
1425 1425 1424 1424 1424 1424 1424 1424 1424 1425 1425 1427 1428 1429 1430 1430 1431 1432 1432 1433 1433 1433 1433 1434 1433 1433 1432 1432 1432 1432 1432 1432 1431 1431 1431 1430 1430 1429 1429 1429 1429 1429 1430